Zurück zum Katalog

STARLINK-30111

AktivKommunikationVLEO
NORAD 56302·PAYLOAD·🇺🇸 United States

Gestartet Apr 19, 2023 von Cape Canaveral Space Force Station

Loading…

Nächste Überflüge (nächste 24 Stunden)

TLE

AktuellSource: CelesTrak SupGP

Epoche: Sep 14, 2026, 13:45 UTC

1 56302C 23056S   26257.57340278 -.00032516  00000+0 -11780-2 0  2574
2 56302  42.9999 221.8698 0001302 269.7711 330.3393 15.27587191    16

Verfolge STARLINK-30111 in Echtzeit mit AllMySat

Download on the App Store